User: anonymous   Login
Location: Unspecified
(0.0000°N, 0.0000°E)
Time: 16:39:46
(UTC+01:00)
Language:

ARIANE 5 R/B - Orbit

View from above orbital plane
View from above orbital plane
View from above satellite
View from above satellite

Ground track
Ground track

The orbit data is extracted from the following two-line orbital elements,

1 28379U 04027B   16336.85360787 +.00000057 +00000-0 -15885-2 0  9997
2 28379 007.2902 033.5401 7280202 303.3018 280.8109 02.07925128094014
Epoch (UTC): 01 December 2016 20:29:11
Eccentricity: 0.7280202
inclination: 7.2902°
perigee height: 674 km
apogee height: 38428 km
right ascension of ascending node: 33.5401°
argument of perigee: 303.3018°
revolutions per day: 2.07925128
mean anomaly at epoch: 280.8109°
orbit number at epoch: 9401

The dashed part of the orbit path shows where the satellite is in the earth's shadow,  

DLR